Regional Weather Roundup
Issued by NWS Albany, NY

Home | Current Version | Previous Version | Text Only | Print | Product List | Glossary On
Versions: 1 2 3 4 5 6 7 8 9 10 11 12 13 14 15 16 17 18 19 20 21 22 23 24 25 26 27 28 29 30 31 32 33 34 35 36 37 38 39 40 41 42 43 44 45 46 47 48 49 50
158
ASUS41 KALY 240210
RWRALY

NEW YORK STATE HOURLY WEATHER ROUNDUP
NATIONAL WEATHER SERVICE ALBANY NY
1000 PM EDT SUN APR 23 2017

NOTE: "FAIR" INDICATES FEW OR NO CLOUDS BELOW 12,000 FEET WITH NO
SIGNIFICANT WEATHER AND/OR NO OBSTRUCTIONS TO VISIBILITY.

NYZ032-033-038>043-046>054-057>066-NYZ062>081-082-084-240300-
EAST


CITY           SKY/WX    TMP DP  RH WIND       PRES   REMARKS
ALBANY         MOCLDY    54  36  50 CALM      30.06R
GLENS FALLS    PTCLDY    52  27  38 SW3       30.04R
POUGHKEEPSIE   PTCLDY    57  39  51 SE7       30.08R
NEWBURGH       MOCLDY    59  39  47 S6        30.10R
MONTGOMERY     PTCLDY    54  37  52 SW5       30.08R
WHITE PLAINS   PTCLDY    48  40  73 S5        30.12R
ISLIP          CLOUDY    48  41  76 S5        30.13S
NEW YORK CITY  CLOUDY    52  42  69 S12       30.12R
CENTRAL PARK   CLOUDY    52  41  66 S6        30.15R
$$

NYZ005>009-017-018-044>046-055-056-240300-
CENTRAL


CITY           SKY/WX    TMP DP  RH WIND       PRES   REMARKS
FULTON         CLEAR     46  38  73 CALM      30.06R
SYRACUSE       PTCLDY    53  39  59 S6        30.06R
ROME           CLEAR     47  37  68 CALM      30.08R
ELMIRA         PTCLDY    47  37  68 N3        30.06R
BINGHAMTON     CLOUDY    59  22  24 CALM      30.06R
MONTICELLO     CLOUDY    54  34  47 S5        30.10R
$$

NYZ026>034-041>043-087-240300-
NORTH


CITY           SKY/WX    TMP DP  RH WIND       PRES   REMARKS
WATERTOWN      CLEAR     48  34  58 CALM      30.06R
FORT DRUM      NOT AVBL
OGDENSBURG     FAIR      53  36  52 N6        30.07R
MASSENA        CLOUDY    53  37  54 N6        30.07R
SARANAC LAKE   CLEAR     46  25  43 SW7       30.03R
PLATTSBURGH    CLOUDY    60  20  21 VRB5      30.00R
$$

NYZ001>004-010>016-019>021-085-240300-
WEST


CITY           SKY/WX    TMP DP  RH WIND       PRES   REMARKS
NIAGARA FALLS  CLEAR     51  31  46 S7        30.07R
BUFFALO        CLEAR     48  31  51 SW7       30.08R
DUNKIRK        CLOUDY    44  35  70 CALM      30.08R
JAMESTOWN      CLOUDY    54  19  26 N7        30.07S
WELLSVILLE     CLOUDY    56  29  35 NE6       30.10R
ROCHESTER      CLEAR     51  33  50 S5        30.07R
PENN YAN       PTCLDY    49  39  68 CALM      30.08R
$$

             KEY
       WCI = WIND CHILL INDEX
       VSB = VISIBILITY
       HX  = HEAT INDEX
$$




USA.gov is the U.S. government's official web portal to all federal, state and local government web resources and services.